Regional Weather Roundup
Issued by NWS Northern Indiana

Home | Current Version | Previous Version | Text Only | Print | Product List | Glossary On
Versions: 1 2 3 4 5 6 7 8 9 10 11 12 13 14 15 16 17 18 19 20 21 22 23 24 25 26 27 28 29 30 31 32 33 34 35 36 37 38 39 40 41 42 43 44 45 46 47 48 49 50
000
ASUS43 KIWX 140010
RWRIWX

KIWX WEATHER ROUNDUP
NATIONAL WEATHER SERVICE NORTHERN INDIANA
700 PM EST SAT FEB 13 2016

NOTE: "FAIR" INDICATES FEW OR NO CLOUDS BELOW 12,000 FEET WITH NO
SIGNIFICANT WEATHER AND/OR OBSTRUCTIONS TO VISIBILITY.

* THESE STATIONS ARE NOT UNDER NWS QUALITY CONTROL. THEY ALSO MAY NOT
  REPORT WEATHER SUCH AS PRECIPITATION OR FOG.

INZ001>027-140100-
NORTHERN INDIANA

CITY           SKY/WX    TMP DP  RH WIND       PRES   REMARKS
GARY*          PTCLDY    14   0  52 CALM      30.52F
VALPARAISO     CLEAR      8  -3  61 E3        30.51S
6HR MIN TEMP:   8; 6HR MAX TEMP:  17; 6HR PCP: TRACE;

MICHIGAN CITY* CLEAR     10   1  67 CALM      30.52F
LAPORTE*       PTCLDY    10   0  64 CALM      30.51F
6HR MIN TEMP:   8; 6HR MAX TEMP:  16;

KNOX*          CLEAR     10   0  61 NE3       30.52S
SOUTH BEND     FLURRIES  11   4  73 W8        30.50F WCI  -1
6HR MIN TEMP:  11; 6HR MAX TEMP:  13; 6HR PCP:  0.01;

GOSHEN         LGT SNOW  12   6  77 W7        30.49F WCI   1
6HR MIN TEMP:  11; 6HR MAX TEMP:  14; 6HR PCP: TRACE;

MONTICELLO*    MOCLDY    13  -5  44 N3        30.51S
6HR MIN TEMP:  12; 6HR MAX TEMP:  18;

LOGANSPORT*    CLEAR     12  -4  48 CALM      30.52S
ROCHESTER*     PTCLDY    12  -6  44 N3        30.52S
WARSAW*        MOCLDY    10   1  67 W7        30.49F WCI   0
ANGOLA*        CLOUDY    12   7  79 NW8       30.44S WCI   1
FORT WAYNE     MOCLDY    11   2  67 W7        30.51R WCI   0
6HR MIN TEMP:  11; 6HR MAX TEMP:  16; 6HR PCP: TRACE;

HUNTINGTON*    CLEAR     10  -4  52 CALM      30.51R
6HR MIN TEMP:  10; 6HR MAX TEMP:  17;

PERU/GRISSOM   CLEAR     12  -1  56 NE7       30.49S WCI   1
6HR MIN TEMP:  12; 6HR MAX TEMP:  17;

MARION*        PTCLDY    11 -10  38 N3        30.51S
6HR MIN TEMP:  -1; 6HR MAX TEMP:  59;


$$
INZ028>050-140100-
CENTRAL INDIANA

CITY           SKY/WX    TMP DP  RH WIND       PRES   REMARKS
LAFAYETTE      CLOUDY    15  -2  46 CALM      30.52S
6HR MIN TEMP:  14; 6HR MAX TEMP:  19;

KOKOMO*        CLEAR     12  -2  52 CALM      30.50S
6HR MIN TEMP:  12; 6HR MAX TEMP:  18;

MUNCIE*        PTCLDY    13  -1  54 NW5       30.49S WCI   5
6HR MIN TEMP:  10; 6HR MAX TEMP:  17;

INDIANAPOLIS   MOCLDY    15  -1  49 W6        30.49F WCI   6
6HR MIN TEMP:  15; 6HR MAX TEMP:  20;


$$
MIZ043>046-050>051-056>058-064>065-071>073-077>080-140100-
SOUTHWEST LOWER MICHIGAN

CITY           SKY/WX    TMP DP  RH WIND       PRES   REMARKS
BATTLE CREEK   CLOUDY    13   2  61 NW9       30.46R WCI   1
6HR MIN TEMP:  13; 6HR MAX TEMP:  16; 6HR PCP: TRACE;

BENTON HARBOR  CLOUDY    15   3  59 W8        30.51S WCI   4
6HR MIN TEMP:  14; 6HR MAX TEMP:  15; 6HR PCP: TRACE;

COLDWATER*     CLOUDY    13   2  62 NW8       30.45S WCI   2
6HR MIN TEMP:  13; 6HR MAX TEMP:  17;

HILLSDALE*     LGT SNOW  12   4  71 W10G17    30.42R WCI  -1
6HR MIN TEMP:  12; 6HR MAX TEMP:  14;

HOLLAND        FLURRIES  14   8  77 NE6       30.49S WCI   5
6HR MIN TEMP:  14; 6HR MAX TEMP:  17; 6HR PCP: TRACE;

GRAND RAPIDS   FLURRIES  13   2  61 NW13      30.47R WCI  -2
6HR MIN TEMP:  13; 6HR MAX TEMP:  17; 6HR PCP: TRACE;

KALAMAZOO      CLOUDY    13   4  67 W7        30.47S WCI   3
6HR MIN TEMP:  13; 6HR MAX TEMP:  17; 6HR PCP: TRACE;

STURGIS*       MOCLDY    11   1  63 NW6       30.46R WCI   2
6HR MIN TEMP:  11; 6HR MAX TEMP:  16;

THREE RIVERS*  FAIR      11   3  70 NW5       30.48S WCI   3
6HR MIN TEMP:  11; 6HR MAX TEMP:  18;


$$
OHZ001>008-015>018-024>025-140100-
NORTHWEST OHIO

CITY           SKY/WX    TMP DP  RH WIND       PRES   REMARKS
DEFIANCE       CLOUDY    15   3  59 W9G17     30.48S WCI   3
6HR MIN TEMP:  15; 6HR MAX TEMP:  19; 6HR PCP: TRACE;

FINDLAY        CLOUDY    15   7  70 W13       30.46R WCI   1
6HR MIN TEMP:  15; 6HR MAX TEMP:  18; 6HR PCP: TRACE;

TOLEDO EXPRESS CLOUDY    14   6  70 W10       30.45F WCI   1
6HR MIN TEMP:  13; 6HR MAX TEMP:  16; 6HR PCP:  0.01;

TOLEDO METCALF LGT SNOW  16   7  67 W10       30.47S WCI   4
6HR MIN TEMP:  15; 6HR MAX TEMP:  17; 6HR PCP: TRACE;

LIMA           PTCLDY    13   4  67 W12       30.46S WCI  -1
6HR MIN TEMP:  13; 6HR MAX TEMP:  16; 6HR PCP: TRACE;


$$
AND FOR LAKE MICHIGAN COASTAL AND OPEN LAKE BUOY OBSERVATIONS

STATION/POSITION TEMP    WIND        PRES    VSBY  WAVE
                 AIR SEA DIR/SP/G                  HT/PER
                 (F)     (DEG/KT/KT) (MB)    (MI)  (FT/S)
CALUMET HARBOR    16                 1032.5F
MICHIGAN CITY     14     300/  9/ 11   N/A
BURNS HARBOR      15     340/  3/  6 1033.9F
SAINT JOSEPH      16     290/  8/ 13 1033.5F

$$
&&



USA.gov is the U.S. government's official web portal to all federal, state and local government web resources and services.